{"data":{"norad_id":63508,"intl_designator":"2025-071R","name":"STARLINK-33809","alt_names":[],"object_type":"PAYLOAD","status":"ACTIVE","operator":null,"country":"US","launch_date":"2025-04-07","launch_site_code":"AFWTR","launch_vehicle":null,"mission":null,"orbit_class":"UNKNOWN","rcs_meters":null,"size_class":null,"mass_kg":null,"dimensions":null,"purposes":["comms"],"wikipedia_slug":null,"has_3d_model":false,"image_url":null,"decayed_at":null,"tle_current":{"epoch":"2026-09-20T09:44:35.024352Z","epoch_age_seconds":163778,"freshness":"FRESH","line1":"1 63508U 25071R   26263.40596093  .00024723  00000+0  74040-3 0  9997","line2":"2 63508  53.1601 313.9052 0001251 100.4224 259.6920 15.34402145 82546","mean_motion":15.34402145,"eccentricity":0.0001251,"inclination_deg":53.1601,"raan_deg":313.9052,"arg_perigee_deg":100.4224,"mean_anomaly_deg":259.692,"bstar":0.0007404,"rev_number":8254,"period_min":93.84762688793,"perigee_km":461.84107650601,"apogee_km":463.55265313898,"semimajor_km":6840.8338648225,"source":"CELESTRAK","updated_at":"2026-09-21T09:00:35.016306Z"}}}